Regional Weather Roundup
Issued by NWS Charleston, SC

Current Version | Previous Version | Graphics & Text | Print | Product List | Glossary On
Versions: 1 2 3 4 5 6 7 8 9 10 11 12 13 14 15 16 17 18 19 20 21 22 23 24 25 26 27 28 29 30 31 32 33 34 35 36 37 38 39 40 41 42 43 44 45 46 47 48 49 50
000 ASUS42 KCHS 031811 RWRCHS REGIONAL WEATHER ROUNDUP NATIONAL WEATHER SERVICE CHARLESTON SC 100 PM EST TUE MAR 03 2015 NOTE: "FAIR" INDICATES FEW OR NO CLOUDS BELOW 12,000 FEET WITH NO SIGNIFICANT WEATHER AND/OR OBSTRUCTIONS TO VISIBILITY. NOT ALL STATIONS ARE QUALITY CONTROLLED BY THE NATIONAL WEATHER SERVICE. USE DATA WITH CAUTION...ESPECIALLY DEWPOINT OBSERVATIONS. SCZ027-030-031-034>040-042>050-031900- ...SOUTHEAST SOUTH CAROLINA... CITY SKY/WX TMP DP RH WIND PRES REMARKS N CHARLESTON CLOUDY 61 51 70 NE6 30.23F 6HR MIN TEMP: 54; 6HR MAX TEMP: 62; WATERFRONT PRK N/A 55 N/A N/A NE5 N/A MOUNT PLEASANT CLOUDY 59 54 82 CALM 30.23F HAZE PINOPOLIS NOT AVBL MONCKS CORNER CLOUDY 55 46 71 CALM 30.25F SUMMERVILLE CLOUDY 55 50 82 NE3 30.26F BEAUFORT MCAS CLOUDY 65 58 78 CALM 30.22F 6HR MIN TEMP: 55; 6HR MAX TEMP: 66; 6HR PCP: 0.02; BEAUFORT ARPT CLOUDY 64 59 82 NE5 30.22S HILTON HEAD IS CLOUDY 57 54 88 NE7 30.24F WALTERBORO CLOUDY 61 55 82 NE3 30.24F ALLENDALE FOG 57 57 100 VRB5 30.21F VSB 1/4 ...SOUTHERN MIDLANDS AND PEE DEE... CITY SKY/WX TMP DP RH WIND PRES REMARKS GEORGETOWN NOT AVBL KINGSTREE NOT AVBL ORANGEBURG CLOUDY 50 47 89 E8 30.24F 6HR MIN TEMP: 49; 6HR MAX TEMP: 53; 6HR PCP: 0.02; BARNWELL CLOUDY 55 54 94 E9 30.24F FOG AIKEN DRIZZLE 52 52 100 E6 30.28S MANNING DRIZZLE N/A N/A N/A N3 30.27F COLUMBIA DRIZZLE 46 46 100 NE8 30.27F FOG 6HR MIN TEMP: 46; 6HR MAX TEMP: 54; 6HR PCP: 0.02; SUMTER DRIZZLE 43 38 85 NE8 30.26F FOG 6HR MIN TEMP: 43; 6HR MAX TEMP: 49; 6HR PCP: TRACE; FLORENCE CLOUDY 43 35 73 NE6 30.29F 6HR MIN TEMP: 42; 6HR MAX TEMP: 45; 6HR PCP: TRACE; MYRTLE BEACH N/A 52 39 62 NE12 30.29 N MYRTLE BEACH CLOUDY 54 44 69 E9 30.26F 6HR MIN TEMP: 45; 6HR MAX TEMP: 54; 6HR PCP: TRACE; $$ GAZ063-065-086>088-099>101-113>116-118-119-134>141-150-031900- ...SOUTHEAST GEORGIA... CITY SKY/WX TMP DP RH WIND PRES REMARKS SAVANNAH ARPT PTSUNNY 72 59 63 CALM 30.20F 6HR MIN TEMP: 56; 6HR MAX TEMP: 72; HUNTER AAF MOSUNNY 71 61 70 SE6 30.18F 6HR MIN TEMP: 55; 6HR MAX TEMP: 71; FORT STEWART CLOUDY 73 63 68 SE5 30.17F 6HR MIN TEMP: 57; 6HR MAX TEMP: 74; STATESBORO CLOUDY 70 68 92 CALM 30.20F SYLVANIA CLOUDY 65 63 91 E3 30.22F CLAXTON CLOUDY 73 64 73 S5 30.19F ...CSRA...CENTRAL AND FAR SOUTHEAST GEORGIA... CITY SKY/WX TMP DP RH WIND PRES REMARKS THOMSON CLOUDY 55 55 100 N6 30.27F AUGUSTA-BUSH LGT RAIN 57 55 93 NE6 30.23F FOG 6HR MIN TEMP: 56; 6HR MAX TEMP: 57; 6HR PCP: TRACE; AUGUSTA-DANIEL LGT RAIN 57 55 93 NE7 30.23F FOG SWAINSBORO NOT AVBL VIDALIA CLOUDY 75 63 64 S8 30.19F EASTMAN CLOUDY 76 65 67 SW3 30.20F HAZLEHURST MOCLDY 78 66 66 S8 30.16F ALMA PTSUNNY 77 63 61 S6 30.17F 6HR MIN TEMP: 54; 6HR MAX TEMP: 78; WAYCROSS SUNNY 82 67 60 S6 30.17F JESUP MOCLDY 79 68 69 S9 30.19F BAXLEY PTSUNNY 79 64 61 S9 30.17F BRUNSWICK MOSUNNY 75 61 60 S8 30.21F SAINT SIMONS SUNNY 68 61 78 SE8 30.21F 6HR MIN TEMP: 57; 6HR MAX TEMP: 70; $$ SCZ027-028-034-036>038-045-046-048>050-GAZ119-141-031900- ...LAKE AND SUPPLEMENTAL COASTAL OBSERVATIONS... STATION/POSITION TIME TEMP WIND PRES WAVE SWELL AIR SEA DIR/SP/G HT/PER HT/PER/DIR (UTC) (F) (DEG/KT/KT) (MB) (FT/S) (FT/S/D) UPR LAKE MARION NOT AVBL WINYAH BAY 1645 48 50/ 13 1025.0 LAKE MURRAY 1700 45 70/ 6/ 11 1025.1F ACE BASIN NERRS NOT AVBL FORT PULASKI 1700 51 50 60/ 7/ 9 1024.7F SAPELO ISLAND 1700 72 120/ 6 1024.0S $$ ANZ835-935-AMZ111-154-330-350-352-354-370-450-454-472-031900- ...C-MAN AND BUOY OBSERVATIONS... STATION/POSITION TIME TEMP WIND PRES WAVE SWELL AIR SEA DIR/SP/G HT/PER HT/PER/DIR (UTC) (F) (DEG/KT/KT) (MB) (FT/S) (FT/S/D) BUOY 41004 1750 68 69 110/ 12/ 14 1022.6F 5/ 9 3/ 9 BUOY 41008 1750 55 54 20/ 2/ 4 1023.3F 2/ 8 2/110/ 8 FOLLY BEACH CMAN 1700 52 40/ 9/ 10 1025.1F CAPERS NEARSHORE NOT AVBL FRIPP NEARSHORE 1700 51 50/ 12/ 14 1023.6F STATION/POSITION TIME TEMP WIND PRES WAVE SWELL AIR SEA DIR/SP/G HT/PER HT/PER/DIR (UTC) (F) (DEG/KT/KT) (MB) (FT/S) (FT/S/D) 5E ST. MARYS GA NOT AVBL FRYING PAN BUOY 1750 62 60 120/ 14/ 16 1024.9F 5/ 7 3/ 60/ 7 BUOY 41025 NOT AVBL CAPE LOOKOUT NC 1700 44 20/ 13/ 15 1027.1F BUOY 41002 1750 65 72 120/ 14/ 17 1026.2F 7/ 8 5/ 40/ 8 BUOY 41010 1720 73 75 120/ 10/ 12 1024.2F ST AUGUSTINE FL 1800 62 120/ 7/ 7 1023.6F $$

USA.gov is the U.S. government's official web portal to all federal, state and local government web resources and services.